Portada
METAR-TAF:

METAR-TAF

Aeroports :

Japanese Ground Self Defense Force

Tokachi-Obihiro, Japó

latitud: 42-54N, longitud: 143-10E, altitud: 84 m

Observació

L'informe es va fer fa 7 hores i 18 minuts, a les 23:10 UTC
Vent 2 kt amb direcció variable
Temperatura 3°C
Humitat 87%
Pressió 1026 hPa
Visibilitat 10 km o més
Escasses núvols a una alçada de 3000 ft
Núvols disperses a una alçada de 24000 ft

METAR: RJCT 132310Z VRB02KT 9999 FEW030 SCT240 03/01 Q1026 RMK 2CU030 4CI240 A3030

Hora: 15:28 (06:28 UTC)


TAF: manca

Observacions i pronòstics meteorològics de més de 4000 aeroports (METAR i TAF).

Les estacions disponibles són els punts grocs i vermells al mapa.

Posi el ratolí al punt desitjat per veure el nom de l'estació.

Feu clic per veure les observacions i els pronòstics meteorològics.

Per canviar el mapa: feu clic els botons verds amb una creu de color negre per apropar; al botó verd amb un guió per allunyar la imatge; o en les fletxes verdes per a mapes adjacents.


METAR-TAF: